#timestamp,LO_Frequency,Hit,StdDev 
1644220815.3,286046999.4,N
1644220835.2,286046999.3,N
1644220855.9,286046998.5,N
1644220875.7,286046996.5,Y
1644220895.6,286047000.9,P
1644220915.4,286047000.4,N
1644220935.2,286047002.4,N
1644220955.1,286046999.9,N
1644220956.0,286046999.9,N
1644220975.8,286047001.2,N
1644220995.7,286047000.7,N
1644221015.5,286047000.8,N
1644221035.4,286047000.7,N
1644221055.2,286047001.0,N
1644221075.0,286046998.9,N
1644221075.9,286046998.9,N
1644221095.8,286046999.3,N
1644221115.6,286046999.5,N
1644221135.4,286046997.1,N
1644221155.3,286047000.3,N
1644221175.1,286047000.1,N
1644221195.9,286047000.9,N
1644221215.7,286047000.6,N
1644221235.5,286047000.9,N
1644221255.4,286046998.4,N
1644221275.2,286046997.9,N
1644221295.1,286046997.1,N
1644221296.0,286046997.1,N
1644221315.8,286046996.6,N
1644221335.6,286046997.9,N
1644221355.5,286046995.0,Y
1644221375.3,286046999.1,P
1644221395.1,286046998.3,P
1644221415.9,286046996.8,P
1644221435.7,286046997.3,N
1644221455.6,286046997.2,N
1644221475.4,286046997.1,N
1644221495.2,286046996.7,Y
1644221515.1,286046996.9,P
1644221516.0,286046996.9,P
1644221535.8,286046998.5,P
1644221555.7,286047000.2,N
1644221575.5,286047000.4,N
1644221595.3,286047000.3,N
1644221615.2,286047002.6,N
1644221635.0,286047001.9,N
1644221635.9,286047001.9,N
1644221655.7,286047000.1,N
1644221675.6,286047000.1,N
1644221695.4,286047002.6,N
1644221715.3,286047001.8,N
1644221735.1,286047003.5,N
1644221736.0,286047003.5,N
1644221755.8,286047001.3,N
1644221775.7,286047005.2,N
1644221795.5,286047003.3,N
1644221815.3,286047001.3,N
1644221835.2,286047002.4,N
1644221855.0,286047001.8,N
1644221855.9,286047001.8,N
1644221875.8,286047000.3,N
1644221895.6,286047002.0,N
1644221915.4,286047000.9,N
1644221935.3,286046999.4,N
1644221955.1,286046997.7,N
1644221975.8,286046994.9,N
1644221995.7,286046996.6,N
1644222015.5,286046999.0,N
1644222035.4,286047000.8,N
1644222055.2,286046998.1,N
1644222075.0,286047000.0,N
1644222075.9,286047000.0,N
1644222095.8,286047002.0,N
1644222115.6,286047002.6,N
1644222135.5,286047001.6,N
1644222155.3,286047001.9,N
1644222175.1,286047001.4,N
1644222195.9,286047005.7,N
1644222215.7,286047004.4,N
1644222235.5,286047000.1,N
1644222255.4,286047000.3,N
1644222275.2,286047001.4,N
1644222295.1,286046999.9,N
1644222296.0,286046999.9,N
1644222315.8,286046998.7,N
1644222335.6,286047001.0,N
1644222355.5,286046998.1,N
1644222375.3,286047001.2,N
1644222395.1,286047001.2,N
1644222415.9,286046997.3,N
1644222435.7,286046999.4,N
1644222455.6,286047001.2,N
1644222475.4,286047000.3,N
1644222495.2,286046996.9,N
1644222515.1,286046996.6,N
1644222516.0,286046996.6,N
1644222535.8,286046999.1,N
1644222555.6,286046999.2,N
1644222575.5,286046996.8,N
1644222595.3,286046996.6,N
1644222615.2,286046998.7,N
1644222635.9,286046999.0,N
1644222655.7,286047001.2,N
1644222675.6,286047002.7,N
1644222695.4,286047001.4,N
1644222715.3,286047002.0,N
1644222735.1,286047000.0,N
1644222736.0,286047000.0,N
1644222755.8,286047002.8,N
1644222775.7,286047000.6,N
1644222795.5,286046999.5,N
1644222815.3,286046997.3,N
1644222835.2,286047002.5,N
1644222855.0,286047000.1,N
1644222855.9,286047000.1,N
1644222875.8,286047001.2,N
1644222895.6,286046996.9,N
1644222915.4,286046998.8,N
1644222935.3,286047000.9,N
1644222955.1,286047000.3,N
1644222975.8,286047000.0,N
1644222995.7,286047000.7,N
1644223015.5,286046995.1,N
1644223035.4,286046997.6,N
1644223055.2,286046999.4,N
1644223075.0,286046998.0,N
1644223075.9,286046998.0,N
1644223095.8,286046999.1,N
1644223115.6,286046998.2,N
1644223135.5,286046998.1,N
1644223185.3,286046999.1,E
1644223195.2,286046998.2,N
1644223215.1,286047001.2,P
1644223216.0,286047001.2,N
1644223235.8,286046998.3,N
1644223255.7,286047000.2,N
1644223275.5,286047002.4,N
1644223295.3,286046999.7,N
1644223315.2,286047000.6,N
1644223335.0,286047001.5,N
1644223335.9,286047001.5,N
1644223355.8,286047001.5,N
1644223375.6,286047002.5,N
1644223395.4,286047001.8,N
1644223415.3,286047001.5,N
1644223435.1,286047004.3,Y
1644223455.8,286047002.0,P
1644223475.7,286047000.1,N
1644223495.5,286047002.0,N
1644223515.4,286047003.7,Y
1644223535.2,286046998.1,P
1644223555.0,286046999.7,N
1644223555.9,286046999.7,N
1644223575.8,286047002.0,N
1644223595.6,286047002.2,N
1644223615.4,286047000.8,N
1644223635.3,286046998.0,N
1644223655.1,286046999.5,N
1644223675.9,286047001.2,N
1644223695.7,286046997.2,N
1644223715.5,286046995.0,Y
1644223735.4,286046996.8,P
1644223755.2,286046995.6,N
1644223775.0,286046994.1,P
1644223775.9,286046994.1,N
1644223795.8,286046991.7,Y
1644223815.6,286046995.7,P
1644223835.5,286046996.4,P
1644223855.3,286046997.8,P
1644223875.1,286046997.6,Y
1644223895.9,286047002.3,P
1644223915.7,286046999.8,N
1644223935.6,286047001.7,N
1644223955.4,286047002.1,N
1644223975.2,286047002.6,N
1644223995.1,286047001.7,N
1644223996.0,286047001.7,N
1644224015.8,286047003.7,N
1644224035.6,286047006.5,Y
1644224055.5,286047006.0,P
1644224075.3,286047001.9,N
1644224095.2,286047004.1,N
1644224115.9,286047002.2,N
1644224135.7,286047001.9,N
1644224155.6,286047002.8,N
1644224175.4,286046998.1,N
1644224195.3,286046999.5,N
1644224215.1,286047000.9,N
1644224216.0,286047000.9,N
1644224235.8,286047000.1,N
1644224255.7,286047004.0,N
1644224275.5,286047003.3,N
1644224295.3,286047004.9,N
1644224315.2,286047009.0,Y
1644224335.0,286047007.2,P
1644224335.9,286047007.2,N
1644224355.8,286047005.4,N
1644224375.6,286047007.5,Y
1644224395.4,286047000.7,P
